TimeCDT,TemperatureF,Dew PointF,Humidity,Sea Level PressureIn,VisibilityMPH,Wind Direction,Wind SpeedMPH,Gust SpeedMPH,PrecipitationIn,Events,Conditions,WindDirDegrees,DateUTC
12:15 AM,63.7,58.5,83,30.01,10.0,Calm,Calm,-,N/A,,Clear,0,2013-09-11 05:15:00
12:35 AM,63.0,58.3,85,30.02,10.0,West,3.5,-,N/A,,Clear,260,2013-09-11 05:35:00
12:55 AM,62.6,58.6,87,30.02,10.0,WSW,3.5,-,N/A,,Clear,240,2013-09-11 05:55:00
1:15 AM,62.6,58.6,87,30.01,10.0,SW,3.5,-,N/A,,Clear,230,2013-09-11 06:15:00
1:35 AM,61.5,58.3,89,30.01,10.0,SW,3.5,-,N/A,,Clear,230,2013-09-11 06:35:00
1:55 AM,60.1,57.9,93,30.01,10.0,Calm,Calm,-,N/A,,Clear,0,2013-09-11 06:55:00
2:15 AM,60.1,57.7,92,30.02,10.0,Calm,Calm,-,N/A,,Clear,0,2013-09-11 07:15:00
2:35 AM,60.4,58.5,93,30.02,10.0,Calm,Calm,-,N/A,,Clear,0,2013-09-11 07:35:00
2:55 AM,59.5,58.3,96,30.02,10.0,Calm,Calm,-,N/A,,Clear,0,2013-09-11 07:55:00
3:15 AM,59.4,58.3,96,30.03,10.0,Calm,Calm,-,N/A,,Clear,0,2013-09-11 08:15:00
3:35 AM,59.5,57.7,94,30.03,10.0,Calm,Calm,-,N/A,,Clear,0,2013-09-11 08:35:00
3:55 AM,59.9,58.5,95,30.03,10.0,Calm,Calm,-,N/A,,Clear,0,2013-09-11 08:55:00
4:15 AM,59.4,58.3,96,30.03,10.0,Calm,Calm,-,N/A,,Clear,0,2013-09-11 09:15:00
4:35 AM,58.3,57.2,96,30.04,10.0,Calm,Calm,-,N/A,,Clear,0,2013-09-11 09:35:00
4:55 AM,58.5,57.4,96,30.03,10.0,Calm,Calm,-,N/A,,Clear,0,2013-09-11 09:55:00
5:15 AM,58.3,57.2,96,30.03,10.0,Calm,Calm,-,N/A,,Clear,0,2013-09-11 10:15:00
5:35 AM,58.1,56.8,96,30.04,10.0,ESE,3.5,-,N/A,,Clear,120,2013-09-11 10:35:00
5:55 AM,58.1,57.4,97,30.04,10.0,Calm,Calm,-,N/A,,Clear,0,2013-09-11 10:55:00
6:15 AM,57.2,56.5,97,30.04,10.0,ESE,3.5,-,N/A,,Clear,120,2013-09-11 11:15:00
6:35 AM,56.3,55.8,98,30.04,10.0,Calm,Calm,-,N/A,,Clear,0,2013-09-11 11:35:00
6:55 AM,56.7,56.1,98,30.04,10.0,SSE,5.8,-,N/A,,Clear,160,2013-09-11 11:55:00
7:15 AM,59.7,58.8,97,30.04,10.0,SSE,3.5,-,N/A,,Clear,150,2013-09-11 12:15:00
7:35 AM,59.9,58.8,96,30.04,10.0,Calm,Calm,-,N/A,,Clear,0,2013-09-11 12:35:00
7:55 AM,61.0,59.9,96,30.04,10.0,Calm,Calm,-,N/A,,Clear,0,2013-09-11 12:55:00
8:15 AM,64.2,61.3,90,30.03,10.0,Calm,Calm,-,N/A,,Scattered Clouds,0,2013-09-11 13:15:00
8:35 AM,68.2,61.9,80,30.03,10.0,SW,6.9,-,N/A,,Scattered Clouds,230,2013-09-11 13:35:00
8:55 AM,70.0,61.7,75,30.03,10.0,SW,6.9,-,N/A,,Scattered Clouds,220,2013-09-11 13:55:00
9:15 AM,71.1,61.7,72,30.03,10.0,SW,8.1,-,N/A,,Mostly Cloudy,230,2013-09-11 14:15:00
9:35 AM,72.3,62.2,70,30.03,10.0,West,6.9,-,N/A,,Mostly Cloudy,260,2013-09-11 14:35:00
9:55 AM,74.8,61.3,63,30.03,10.0,WSW,8.1,-,N/A,,Scattered Clouds,250,2013-09-11 14:55:00
10:15 AM,75.4,61.0,61,30.03,10.0,WSW,10.4,-,N/A,,Mostly Cloudy,250,2013-09-11 15:15:00
10:35 AM,76.6,60.1,56,30.03,10.0,West,13.8,18.4,N/A,,Scattered Clouds,260,2013-09-11 15:35:00
10:55 AM,78.1,60.4,54,30.03,10.0,West,9.2,-,N/A,,Clear,260,2013-09-11 15:55:00
11:15 AM,78.1,59.2,52,30.03,10.0,West,8.1,-,N/A,,Clear,260,2013-09-11 16:15:00
11:35 AM,79.0,57.9,48,30.03,10.0,West,10.4,-,N/A,,Clear,270,2013-09-11 16:35:00
11:55 AM,80.4,58.1,46,30.03,10.0,West,11.5,-,N/A,,Clear,280,2013-09-11 16:55:00
12:15 PM,81.1,58.5,46,30.03,10.0,West,11.5,17.3,N/A,,Clear,270,2013-09-11 17:15:00
12:35 PM,81.1,57.9,45,30.02,10.0,West,11.5,17.3,N/A,,Clear,280,2013-09-11 17:35:00
12:55 PM,82.2,58.1,44,30.03,10.0,NW,12.7,16.1,N/A,,Scattered Clouds,310,2013-09-11 17:55:00
1:15 PM,81.0,59.2,47,30.03,10.0,NW,8.1,17.3,N/A,,Mostly Cloudy,310,2013-09-11 18:15:00
1:35 PM,81.1,58.8,46,30.04,10.0,WNW,13.8,18.4,N/A,,Mostly Cloudy,290,2013-09-11 18:35:00
1:55 PM,78.8,55.4,44,30.04,10.0,NW,10.4,20.7,N/A,,Scattered Clouds,310,2013-09-11 18:55:00
2:15 PM,81.1,49.8,33,30.04,10.0,NNW,15.0,20.7,N/A,,Scattered Clouds,330,2013-09-11 19:15:00
2:35 PM,81.7,48.7,32,30.04,10.0,NNW,15.0,19.6,N/A,,Clear,340,2013-09-11 19:35:00
2:55 PM,81.5,48.7,32,30.04,10.0,NW,12.7,20.7,N/A,,Clear,310,2013-09-11 19:55:00
3:15 PM,82.0,45.9,28,30.04,10.0,NNW,10.4,23.0,N/A,,Clear,330,2013-09-11 20:15:00
3:35 PM,81.0,47.5,31,30.04,10.0,NNW,11.5,17.3,N/A,,Scattered Clouds,340,2013-09-11 20:35:00
3:55 PM,81.0,47.3,31,30.04,10.0,NNW,9.2,20.7,N/A,,Scattered Clouds,330,2013-09-11 20:55:00
4:15 PM,81.1,47.7,31,30.04,10.0,NNW,11.5,16.1,N/A,,Clear,330,2013-09-11 21:15:00
4:35 PM,81.0,48.7,32,30.04,10.0,NNW,12.7,17.3,N/A,,Clear,330,2013-09-11 21:35:00
4:55 PM,80.6,48.9,33,30.04,10.0,NW,8.1,16.1,N/A,,Clear,320,2013-09-11 21:55:00
5:15 PM,80.2,48.9,33,30.04,10.0,NW,10.4,-,N/A,,Clear,320,2013-09-11 22:15:00
5:35 PM,79.7,50.2,36,30.04,10.0,NNW,6.9,-,N/A,,Clear,330,2013-09-11 22:35:00
5:55 PM,79.0,50.0,36,30.04,10.0,NNW,3.5,-,N/A,,Clear,330,2013-09-11 22:55:00
6:15 PM,78.8,49.5,36,30.04,10.0,NW,3.5,-,N/A,,Clear,320,2013-09-11 23:15:00
6:35 PM,78.4,50.0,37,30.04,10.0,Calm,Calm,-,N/A,,Clear,0,2013-09-11 23:35:00
6:55 PM,77.0,50.7,40,30.03,10.0,Calm,Calm,-,N/A,,Clear,0,2013-09-11 23:55:00
7:15 PM,75.6,51.1,42,30.03,10.0,Calm,Calm,-,N/A,,Clear,0,2013-09-12 00:15:00
7:35 PM,71.8,52.3,50,30.02,10.0,SSE,3.5,-,N/A,,Clear,150,2013-09-12 00:35:00
7:55 PM,68.2,53.8,60,30.03,10.0,Calm,Calm,-,N/A,,Clear,0,2013-09-12 00:55:00
8:15 PM,64.9,55.0,70,30.03,10.0,Calm,Calm,-,N/A,,Clear,0,2013-09-12 01:15:00
8:35 PM,65.3,55.2,70,30.03,10.0,Calm,Calm,-,N/A,,Mostly Cloudy,0,2013-09-12 01:35:00
8:55 PM,63.7,54.5,72,30.03,10.0,Calm,Calm,-,N/A,,Mostly Cloudy,0,2013-09-12 01:55:00
9:15 PM,63.9,54.0,70,30.04,10.0,Calm,Calm,-,N/A,,Mostly Cloudy,0,2013-09-12 02:15:00
9:35 PM,62.8,53.8,72,30.04,10.0,Calm,Calm,-,N/A,,Mostly Cloudy,0,2013-09-12 02:35:00
9:55 PM,64.6,55.4,72,30.05,10.0,West,6.9,-,N/A,,Scattered Clouds,270,2013-09-12 02:55:00
10:15 PM,69.1,54.3,59,30.06,10.0,WNW,8.1,-,N/A,,Clear,290,2013-09-12 03:15:00
10:35 PM,69.8,53.1,55,30.06,10.0,WNW,8.1,-,N/A,,Clear,300,2013-09-12 03:35:00
10:55 PM,69.1,52.7,56,30.06,10.0,WNW,8.1,-,N/A,,Clear,300,2013-09-12 03:55:00
11:15 PM,68.4,51.8,55,30.07,10.0,NW,8.1,-,N/A,,Clear,310,2013-09-12 04:15:00
11:35 PM,67.3,51.8,58,30.06,10.0,NW,5.8,-,N/A,,Clear,310,2013-09-12 04:35:00
11:55 PM,65.8,51.8,60,30.07,10.0,WNW,8.1,-,N/A,,Clear,300,2013-09-12 04:55:00